Location: Prairie State College
(41.5244°N, 87.6382°W)
Time: 15:20:11
(UTC-05:00)

ARGOS Delta rocket - Visible Passes

Search period start: 26 May 2016 00:00
Search period end: 05 June 2016 00:00
Orbit: 634 x 840 km, 96.5° (Epoch: 25 May)

Date Brightness Start Highest point End Pass type
(mag) Time Alt. Az. Time Alt. Az. Time Alt. Az.
28 May 6.7 04:16:50 10° ENE 04:19:04 13° E 04:21:21 10° ESE visible
30 May 6.6 04:24:47 10° NE 04:27:55 17° E 04:31:09 10° SE visible
01 Jun 6.3 04:33:01 10° NE 04:36:46 22° E 04:40:39 10° SE visible
03 Jun 6.0 04:41:24 10° NE 04:45:35 28° E 04:49:57 10° SSE visible
04 Jun 7.0 03:59:29 10° ENE 04:00:16 10° E 04:01:03 10° E visible
